Погода в Путилково

Россия / Московская область     55°51′49″N   37°23′31″E
темп.,
°C
ветер,
м/с
пор.,
м/с
влажн.,
%
обл.,
%
осадки,
мм/ч
давл.,
гПа
погр.,
м
19 апреля, пн
пн1900:00+8всв4966100 0.0 1023874
03:00+7св51080100 0.1 1023814
06:00+6всв51181100 0.1 1023698
09:00+6всв6969100 0.1 1024751
12:00+9всв6855100 0.0 10241229
15:00+9всв6854100 0.0 10241453
18:00+9всв6953100 0.0 10241449
21:00+7в5948100 0.0 10241298
20 апреля, вт
вт2000:00+6в5949100 0.0 10241165
03:00+3всв5116999 0.0 1023782
06:00+3в61168100 0.2 1022731
09:00+2всв51293100 0.7 1022573
12:00+5в6969100 0.1 1021938
15:00+3всв51194100 0.2 1019779
18:00+3в51194100 0.1 1017791
21:00+3всв61395100 0.8 1014672
21 апреля, ср
ср2100:00+2всв61796100 5.8 1009767
03:00+2в61597100 10.8 1004923
06:00+4вюв71594100 1.7 1001827
09:00+5вюв51396100 2.5 1000755
12:00+6вюв41096100 0.1 999515
15:00+4ююз61190100 0.5 1001505
18:00+4юз71280100 0.1 10061062
21:00+4юз51185100 0.2 10091096
22 апреля, чт
чт2200:00+4ююз51088100 0.0 1011745
03:00+4ююз41189100 0.1 1012693
06:00+3ююз41189100 0.0 1013676
09:00+5ююз5977100 0.1 1014529
12:00+9ююз6961100 0.0 10151190
15:00+12ююз5850100 0.1 10151605
18:00+12ю475251 0.0 10161257
21:00+9ююв31073100 0.0 1016331
23 апреля, пт
пт2300:00+8ю3108755 0.0 1016266
03:00+7ю3108926 0.0 1016281
06:00+6ю399425 0.0 1016262
09:00+10ю487698 0.9 1016491
12:00+15ю610517 0.4 10141615
15:00+16ю8114687 0.8 10121880
18:00+15ю71258100 1.2 10111441
21:00+12ю61268100 2.6 10101254